Вернуться в каталог

STARLINK-34423

АктивенСвязьVLEO
NORAD 64460·PAYLOAD·🇺🇸 United States

Запущен Jun 18, 2025 с Cape Canaveral Space Force Station

Loading…

Ближайшие Пролёты (ближайшие 24 часа)

TLE

СвежийSource: CelesTrak SupGP

Эпоха: Sep 14, 2026, 20:42 UTC

1 64460C 25130Y   26257.86298611  .00016811  00000+0  49691-3 0  2579
2 64460  53.1579 288.2070 0001164  81.1508 126.1841 15.34368135    17

Отслеживайте STARLINK-34423 в реальном времени с AllMySat

Download on the App Store